Regional Weather Roundup
Issued by NWS Charleston, WV

Home | Current Version | Previous Version | Graphics & Text | Print | Product List | Glossary On
Versions: 1 2 3 4 5 6 7 8 9 10 11 12 13 14 15 16 17 18 19 20 21 22 23 24 25 26 27 28 29 30 31 32 33 34 35 36 37 38 39 40 41 42 43 44 45 46 47 48 49 50
000
ASUS41 KRLX 021510
RWRRLX
West Virginia Regional Weather Roundup
National Weather Service Charleston WV
1100 AM EDT MON MAY 02 2016

Note: "fair" indicates few or no clouds below 12,000 feet with no
significant weather and/or obstructions to visibility.

WVZ003-021600-
Northern Panhandle of West Virginia

CITY           SKY/WX    TMP DP  RH WIND       PRES   REMARKS
WHEELING       CLOUDY    65  56  72 SW13G20   29.93R
$$

WVZ009-021600-
Northwest West Virginia

CITY           SKY/WX    TMP DP  RH WIND       PRES   REMARKS
PARKERSBURG    PTSUNNY  N/A N/A N/A SW12      29.97S
$$

WVZ006-021600-
Western West Virginia

CITY           SKY/WX    TMP DP  RH WIND       PRES   REMARKS
HUNTINGTON       N/A     72  59  63 SW8       29.97F
$$

WVZ015-021600-
West Central West Virginia

CITY           SKY/WX    TMP DP  RH WIND       PRES   REMARKS
CHARLESTON     PTSUNNY   71  60  68 SW8       29.98S
$$

WVZ022-031-021600-
North Central West Virginia

CITY           SKY/WX    TMP DP  RH WIND       PRES   REMARKS
CLARKSBURG     CLOUDY    67  59  75 W14G21    29.95S
MORGANTOWN     CLOUDY    67  57  70 VRB6      29.95S
$$

WVZ025-035-042-045-021600-
Southern West Virginia

CITY           SKY/WX    TMP DP  RH WIND       PRES   REMARKS
BECKLEY        PTSUNNY   67  58  72 W9        30.04F
LOGAN          NOT AVBL
BLUEFIELD      CLOUDY    67  59  75 W12       30.08S
LEWISBURG        N/A     68  59  73 SW12G20   30.04S
$$

WVZ047-021600-
Northern Mountains of West Virginia

CITY           SKY/WX    TMP DP  RH WIND       PRES   REMARKS
ELKINS         PTSUNNY   69  56  62 W10G22    29.99S
$$

WVZ052-021600-
Eastern Panhandle of West Virginia

CITY           SKY/WX    TMP DP  RH WIND       PRES   REMARKS
MARTINSBURG      N/A     66  61  84 S8        29.91F
PETERSBURG       N/A     75  62  63 CALM      29.93S
$$



USA.gov is the U.S. government's official web portal to all federal, state and local government web resources and services.